Location: Ailingen
(47.6833°N, 9.5000°E)
Time: 11:57:56
(UTC+00:00)

SKYMED 2 - Pass Details

Date: 18 November 2025
Orbit: 621 x 623 km, 97.9° (Epoch: 11 December)

Event Time Altitude Azimuth Distance (km) Brightness Sun altitude
Exits shadow 18:03:32 13° 2° (N) 1,825 5.9 -23.6°
Maximum altitude 18:07:18 51° 289° (WNW) 788 4.3 -24.2°
Drops below altitude 10° 18:11:29 10° 214° (SSW) 1,987 6.6 -24.9°
Sets 18:13:42 0° 209° (SSW) 2,889 7.4 -25.3°
